Back to catalog

OPS 4682 DEB

AlivePO
NORAD 38449·DEBRIS·🇺🇸 United States

Launched Apr 3, 1965 from Vandenberg Space Force Base

Loading…

Next Passes (next 24 hours)

TLE

FreshSource: Space-Track

Epoch: Sep 14, 2026, 00:39 UTC

1 38449U 65027FE  26257.02718344  .00000163  00000-0  55192-3 0  9994
2 38449  90.2543  13.0196 0029427 294.3574  65.4474 12.95299137599136

Track OPS 4682 DEB in real time with AllMySat

Download on the App Store